Regional Weather Roundup
Issued by NWS

Home | Current Version | Previous Version | Graphics & Text | Print | Product List | Glossary On
Versions: 1 2 3 4 5 6 7 8 9 10 11 12 13 14 15 16 17 18 19 20 21 22 23 24 25 26 27 28 29 30 31 32 33 34 35 36 37 38 39 40 41 42 43 44 45 46 47 48 49 50
000
ASUS43 KFSD 171702
RWRSD

WEATHER ROUNDUP FOR SOUTH DAKOTA
NATIONAL WEATHER SERVICE SIOUX FALLS SD
1100 AM CST WED DEC 17 2014

NOTE: "FAIR" INDICATES FEW OR NO CLOUDS BELOW 12,000 FEET WITH NO
SIGNIFICANT WEATHER AND/OR OBSTRUCTIONS TO VISIBILITY.


SDZ001>005-009-010-012>017-171800-
NORTHWEST AND NORTH CENTRAL SOUTH DAKOTA

CITY           SKY/WX    TMP DP  RH WIND       PRES   REMARKS
BUFFALO          N/A     18  15  88 SE16      30.00S WCI   3
FAITH            N/A     16  14  92 SE16      30.14S WCI   1
MOBRIDGE       CLOUDY    17  11  77 S9        30.24S WCI   6
$$

SDZ012>016-024>037-041>051-057-063-072>074-171800-
SOUTHWEST AND SOUTH CENTRAL SOUTH DAKOTA

CITY           SKY/WX    TMP DP  RH WIND       PRES   REMARKS
RAPID CTY ARPT CLOUDY    20  18  92 SE8       30.04F WCI  10
PIERRE         CLOUDY    17  14  88 SE15      30.25S WCI   2
CUSTER         MOSUNNY   31  22  69 SW3       29.90S
ELLSWORTH AFB  CLOUDY    19  17  92 SE7       30.03S FOG     WCI  10
PHILIP         CLOUDY    21  17  84 SE14      30.16S WCI   8
PINE RIDGE     CLOUDY    25  20  81 S12       30.04S WCI  14
WINNER         CLOUDY    20  16  84 SE15      30.23F WCI   6
$$

SDZ004>011-016>023-039-040-171800-
NORTHEAST SOUTH DAKOTA

CITY           SKY/WX    TMP DP  RH WIND       PRES   REMARKS
ABERDEEN       MOSUNNY   14   8  77 CALM      30.35S
WATERTOWN      SUNNY     13   8  81 N5        30.29S WCI   5
SISSETON         N/A     10   7  87 MISG      30.36S
$$

SDZ017-020-022-023-036>040-048>070-171800-
SOUTHEAST SOUTH DAKOTA

CITY           SKY/WX    TMP DP  RH WIND       PRES   REMARKS
SIOUX FALLS    MOSUNNY   13   9  84 CALM      30.34S
HURON          SUNNY      6   2  83 CALM      30.36S
MITCHELL       SUNNY     10   7  87 CALM      30.35F
YANKTON        MOSUNNY   12   9  85 E3        30.36F
$$

ABBREVIATIONS USED IN REMARKS
   TC - TEMPERATURE IN CELSIUS
  WCI - WIND CHILL INDEX
   HX - HEAT INDEX
  VSB - VISIBILITY



USA.gov is the U.S. government's official web portal to all federal, state and local government web resources and services.